Home > Weather > Derby > Past weeks

Flag for United Kingdom Past Weather in Derby, England, United Kingdom — Yesterday and Last 2 Weeks

Now
61 °F

Partly sunny.


Feels Like: 61 °F
Forecast: 51 / 64 °F
Wind: 10 mph from Southwest

Location: East Midlands

Current Time: Jun 30, 2016 at 8:34:01 PM

Latest Report: Jun 30, 2016 at 7:50 PM


Visibility: N/A

Pressure: 29.71 "Hg

Humidity: 68%

Dew Point: 50 °F

Location of DerbyLocation

Past Weather in Derby — Graph

°F

Derby Temperature Yesterday

Maximum temperature yesterday: 61 °F (at 5:50 PM)
Minimum temperature yesterday: 50 °F (at 2:20 AM)
Average temperature yesterday: 55 °F

High & Low Weather Summary for the Past Weeks

 TemperatureHumidityPressure
High72 °F (Jun 23, 2:20 PM)100% (Jun 15, 8:20 PM)30.21 "Hg (Jun 15, 8:20 PM)
Low50 °F (Jun 25, 1:50 AM)46% (Jun 24, 1:50 PM)29.45 "Hg (Jun 15, 7:20 PM)
Average59 °F81%29.92 "Hg
* Reported Jun 15 7:20 PM — Jun 30 7:20 PM, Derby, Weather by CustomWeather, © 2016

Note: Actual official high and low records may vary slightly from our data, if they occured in-between our weather recording intervals... More about our weather records

Advertising

Derby Weather History for the Previous 24 Hours

Scroll right to see more
 ConditionsComfort  
Time TempWeatherWind HumidityBarometerVisibility
7:20 PM
Thu, Jun 30
61 °FPartly sunny.9 mph68%29.74 "HgN/A
6:50 PM63 °FSunny.12 mph59%29.74 "Hg10 mi
6:20 PM63 °FPassing clouds.9 mph64%29.74 "HgN/A
5:50 PM63 °FSunny.12 mph64%29.74 "Hg10 mi
5:20 PM63 °FSunny.12 mph64%29.74 "Hg10 mi
4:50 PM63 °FSunny.15 mph59%29.77 "Hg10 mi
4:20 PM64 °FSunny.20 mph56%29.77 "Hg10 mi
3:50 PM64 °FSunny.20 mph56%29.77 "Hg10 mi
3:20 PM64 °FPassing clouds.17 mph56%29.74 "HgN/A
2:50 PM66 °FScattered clouds.16 mph49%29.74 "HgN/A
2:20 PM64 °FPartly sunny.15 mph56%29.74 "HgN/A
1:50 PM66 °FScattered clouds.16 mph52%29.77 "HgN/A
1:20 PM66 °FScattered clouds.17 mph52%29.77 "HgN/A
12:50 PM64 °FPassing clouds.15 mph56%29.77 "HgN/A
12:20 PM64 °FScattered clouds.15 mph56%29.77 "HgN/A
11:50 AM64 °FBroken clouds.15 mph60%29.77 "HgN/A
11:20 AM63 °FBroken clouds.14 mph59%29.77 "HgN/A
10:50 AM63 °FScattered clouds.12 mph59%29.77 "HgN/A
10:20 AM63 °FScattered clouds.12 mph64%29.77 "HgN/A
9:50 AM59 °FScattered clouds.10 mph77%29.77 "HgN/A
9:20 AM59 °FScattered clouds.8 mph77%29.77 "HgN/A
8:50 AM59 °FPassing clouds.7 mph82%29.77 "HgN/A
8:20 AM57 °FScattered clouds.8 mph88%29.77 "HgN/A
7:50 AM55 °FPassing clouds.6 mph88%29.74 "HgN/A
7:20 AM55 °FPassing clouds.8 mph88%29.74 "HgN/A
6:50 AM54 °FPassing clouds.6 mph94%29.74 "HgN/A
6:20 AM54 °FPassing clouds.8 mph94%29.74 "HgN/A
5:20 AM52 °FClear.8 mph100%29.71 "Hg10 mi
4:50 AM52 °FPassing clouds.8 mph100%29.71 "HgN/A
4:20 AM54 °FPassing clouds.7 mph94%29.71 "HgN/A
3:50 AM54 °FPassing clouds.9 mph94%29.71 "HgN/A
3:20 AM54 °FClear.9 mph94%29.71 "Hg10 mi
2:50 AM54 °FClear.9 mph94%29.71 "Hg10 mi
2:20 AM54 °FClear.9 mph94%29.71 "Hg10 mi
1:50 AM54 °FClear.9 mph94%29.71 "Hg10 mi
1:20 AM54 °FClear.10 mph94%29.68 "Hg10 mi
12:20 AM55 °FClear.10 mph88%29.68 "Hg10 mi
11:50 PM
Wed, Jun 29
55 °FClear.9 mph88%29.68 "Hg10 mi
11:20 PM55 °FClear.10 mph94%29.68 "Hg10 mi
10:50 PM55 °FPassing clouds.12 mph88%29.68 "HgN/A
10:20 PM55 °FPassing clouds.12 mph94%29.65 "HgN/A
9:50 PM57 °FScattered clouds.12 mph88%29.65 "HgN/A
9:20 PM55 °FScattered clouds.15 mph94%29.65 "HgN/A
8:50 PM57 °FLight rain. Cloudy.14 mph88%29.62 "HgN/A
8:20 PM61 °FLight rain. Broken clouds.12 mph83%29.62 "HgN/A
Weather by CustomWeather, © 2016

See weather overviewHow to use our weather pages